Location: Newark
(25.4800°N, 85.7200°E)
Time: 14:36:14
(UTC+00:00)

Transit 4A - Pass Details

Date: 02 September 2019
Orbit: 865 x 980 km, 66.8° (Epoch: 16 September)

Event Time Altitude Azimuth Distance (km) Brightness Sun altitude
Rises 19:57:05 0° 329° (NNW) 3,564 - -48.7°
Reaches altitude 10° 19:59:42 10° 325° (NW) 2,601 - -48.4°
Maximum altitude 20:05:29 51° 251° (WSW) 1,114 - -47.5°
Drops below altitude 10° 20:11:07 10° 176° (S) 2,523 - -46.6°
Sets 20:13:37 0° 171° (S) 3,447 - -46.3°
